RUC2376 SVSA-SVVA

Flight info

Callsign RUC2376
Flight time 0h 47m
Altitude 37000
Route LFA1A LFA UW8 BRM UW14 NOSCA DCT VAL
Aircraft B737/M-SDE2E3FGHIRWXY/LB1

Departure

Time 2026-04-19 20:59
Airport Juan Vicente Gómez International Airport (SVSA)

Arrival

Time 2026-04-19 21:47
Airport Arturo Michelena International Airport (SVVA)
Time Latitude Longitude Altitude Speed Heading
2026-04-19 20:34 7.83894 -72.43988 1279 ft 0 kts 253°
2026-04-19 20:39 7.83893 -72.43989 1279 ft 0 kts 254°
2026-04-19 20:52 7.83894 -72.43985 1279 ft 2 kts 253°
2026-04-19 20:53 7.83901 -72.43966 1280 ft 3 kts 238°
2026-04-19 20:53 7.83914 -72.43951 1280 ft 3 kts 212°
2026-04-19 20:53 7.83930 -72.43945 1279 ft 2 kts 171°
2026-04-19 20:53 7.83935 -72.43946 1279 ft 2 kts 165°
2026-04-19 20:56 7.83905 -72.43938 1281 ft 14 kts 165°
2026-04-19 20:57 7.83778 -72.43902 1287 ft 20 kts 165°
2026-04-19 20:57 7.83654 -72.43869 1292 ft 16 kts 165°
2026-04-19 20:57 7.83571 -72.43846 1297 ft 12 kts 163°
2026-04-19 20:57 7.83475 -72.43819 1303 ft 13 kts 165°
2026-04-19 20:58 7.83397 -72.43798 1308 ft 10 kts 165°
2026-04-19 20:58 7.83308 -72.43777 1313 ft 17 kts 184°
2026-04-19 20:58 7.83280 -72.43768 1314 ft 2 kts 60°
2026-04-19 20:58 7.83425 -72.43804 1307 ft 56 kts 345°
2026-04-19 20:59 7.84068 -72.43983 1272 ft 133 kts 345°
2026-04-19 20:59 7.85119 -72.44265 1558 ft 162 kts 347°
2026-04-19 20:59 7.86171 -72.44529 2674 ft 151 kts 347°
2026-04-19 20:59 7.87203 -72.44826 3476 ft 161 kts 344°
2026-04-19 21:00 7.88390 -72.45173 3917 ft 197 kts 344°
2026-04-19 21:00 7.89826 -72.45586 4251 ft 231 kts 344°
2026-04-19 21:00 7.91471 -72.46050 4687 ft 259 kts 344°
2026-04-19 21:00 7.93257 -72.46247 5343 ft 275 kts
2026-04-19 21:01 7.95080 -72.45628 6393 ft 278 kts 24°
2026-04-19 21:01 7.96838 -72.44770 7393 ft 282 kts 26°
2026-04-19 21:01 7.98554 -72.43905 8729 ft 270 kts 26°
2026-04-19 21:01 8.00227 -72.43062 9763 ft 273 kts 26°
2026-04-19 21:02 8.02002 -72.42175 10214 ft 297 kts 26°
2026-04-19 21:02 8.03956 -72.41207 10428 ft 327 kts 25°
2026-04-19 21:02 8.06071 -72.40166 10809 ft 346 kts 25°
2026-04-19 21:02 8.08234 -72.39103 11553 ft 353 kts 25°
2026-04-19 21:03 8.10449 -72.38017 12455 ft 355 kts 25°
2026-04-19 21:03 8.12653 -72.36877 13281 ft 360 kts 32°
2026-04-19 21:03 8.14570 -72.35216 14010 ft 367 kts 47°
2026-04-19 21:03 8.16031 -72.33087 14758 ft 372 kts 61°
2026-04-19 21:04 8.17192 -72.30738 15472 ft 378 kts 64°
2026-04-19 21:04 8.18301 -72.28318 16137 ft 383 kts 64°
2026-04-19 21:04 8.19404 -72.25853 16819 ft 388 kts 65°
2026-04-19 21:04 8.20520 -72.23359 17478 ft 392 kts 65°
2026-04-19 21:05 8.21655 -72.20839 18123 ft 396 kts 64°
2026-04-19 21:05 8.22814 -72.18289 18740 ft 401 kts 64°
2026-04-19 21:05 8.23989 -72.15721 19354 ft 405 kts 64°
2026-04-19 21:05 8.25182 -72.13123 19957 ft 409 kts 64°
2026-04-19 21:06 8.26373 -72.10537 20523 ft 413 kts 64°
2026-04-19 21:06 8.27607 -72.07863 21070 ft 417 kts 64°
2026-04-19 21:06 8.28820 -72.05234 21601 ft 420 kts 64°
2026-04-19 21:06 8.30060 -72.02547 22111 ft 424 kts 64°
2026-04-19 21:07 8.31315 -71.99829 22570 ft 428 kts 64°
2026-04-19 21:07 8.32579 -71.97090 23018 ft 432 kts 64°
2026-04-19 21:07 8.33853 -71.94330 23478 ft 435 kts 64°
2026-04-19 21:07 8.35134 -71.91552 23931 ft 438 kts 64°
2026-04-19 21:08 8.36424 -71.88755 24346 ft 441 kts 64°
2026-04-19 21:08 8.37722 -71.85938 24738 ft 444 kts 64°
2026-04-19 21:08 8.39033 -71.83095 25104 ft 448 kts 64°
2026-04-19 21:08 8.40352 -71.80232 25465 ft 451 kts 64°
2026-04-19 21:09 8.41680 -71.77351 25821 ft 454 kts 64°
2026-04-19 21:09 8.43021 -71.74440 26160 ft 458 kts 64°
2026-04-19 21:09 8.44372 -71.71509 26518 ft 460 kts 64°
2026-04-19 21:09 8.45726 -71.68567 26848 ft 463 kts 64°
2026-04-19 21:10 8.47067 -71.65655 27188 ft 466 kts 64°
2026-04-19 21:10 8.48438 -71.62673 27488 ft 469 kts 65°
2026-04-19 21:10 8.49813 -71.59683 27801 ft 471 kts 64°
2026-04-19 21:10 8.51200 -71.56666 28089 ft 474 kts 65°
2026-04-19 21:11 8.52592 -71.53637 28368 ft 477 kts 65°
2026-04-19 21:11 8.53997 -71.50580 28656 ft 480 kts 65°
2026-04-19 21:11 8.55407 -71.47515 28974 ft 482 kts 65°
2026-04-19 21:11 8.56825 -71.44430 29241 ft 484 kts 65°
2026-04-19 21:12 8.58242 -71.41344 29508 ft 487 kts 65°
2026-04-19 21:12 8.59676 -71.38224 29758 ft 490 kts 65°
2026-04-19 21:12 8.61099 -71.35127 30011 ft 492 kts 65°
2026-04-19 21:12 8.62544 -71.31980 30238 ft 495 kts 65°
2026-04-19 21:13 8.63992 -71.28813 30509 ft 497 kts 65°
2026-04-19 21:13 8.65447 -71.25635 30731 ft 498 kts 65°
2026-04-19 21:13 8.66904 -71.22450 30914 ft 501 kts 65°
2026-04-19 21:13 8.68374 -71.19250 31110 ft 503 kts 65°
2026-04-19 21:14 8.69849 -71.16038 31374 ft 504 kts 65°
2026-04-19 21:14 8.71318 -71.12832 31705 ft 503 kts 65°
2026-04-19 21:14 8.72807 -71.09635 32164 ft 499 kts 65°
2026-04-19 21:14 8.74270 -71.06463 32552 ft 497 kts 66°
2026-04-19 21:15 8.75682 -71.03293 32847 ft 501 kts 66°
2026-04-19 21:15 8.77136 -71.00096 33206 ft 499 kts 66°
2026-04-19 21:15 8.78603 -70.96912 33520 ft 500 kts 66°
2026-04-19 21:15 8.80070 -70.93722 33894 ft 499 kts 66°
2026-04-19 21:16 8.81529 -70.90543 34258 ft 498 kts 66°
2026-04-19 21:16 8.82986 -70.87361 34638 ft 497 kts 66°
2026-04-19 21:16 8.84436 -70.84193 35002 ft 496 kts 66°
2026-04-19 21:16 8.85882 -70.81030 35323 ft 495 kts 66°
2026-04-19 21:17 8.87312 -70.77900 35590 ft 496 kts 66°
2026-04-19 21:17 8.88758 -70.74734 35893 ft 495 kts 66°
2026-04-19 21:17 8.90202 -70.71572 36230 ft 494 kts 66°
2026-04-19 21:17 8.91639 -70.68427 36509 ft 494 kts 66°
2026-04-19 21:18 8.93078 -70.65275 36769 ft 493 kts 66°
2026-04-19 21:18 8.94511 -70.62134 37142 ft 490 kts 66°
2026-04-19 21:18 8.95934 -70.59017 37538 ft 486 kts 66°
2026-04-19 21:18 8.97349 -70.55916 37913 ft 483 kts 66°
2026-04-19 21:19 8.98753 -70.52839 38180 ft 482 kts 66°
2026-04-19 21:19 9.00161 -70.49752 38370 ft 482 kts 66°
2026-04-19 21:19 9.01565 -70.46669 38542 ft 483 kts 66°
2026-04-19 21:19 9.02973 -70.43576 38708 ft 484 kts 66°
2026-04-19 21:20 9.04380 -70.40489 38943 ft 483 kts 66°
2026-04-19 21:20 9.05789 -70.37394 38950 ft 486 kts 66°
2026-04-19 21:20 9.08617 -70.31186 38960 ft 485 kts 66°
2026-04-19 21:21 9.11428 -70.25008 38966 ft 482 kts 66°
2026-04-19 21:21 9.14217 -70.18881 38965 ft 481 kts 66°
2026-04-19 21:22 9.17013 -70.12728 38966 ft 480 kts 66°
2026-04-19 21:22 9.19801 -70.06590 38979 ft 480 kts 66°
2026-04-19 21:23 9.22591 -70.00444 38983 ft 481 kts 66°
2026-04-19 21:23 9.24921 -69.95311 38973 ft 483 kts 67°
2026-04-19 21:24 9.28199 -69.88083 38981 ft 484 kts 67°
2026-04-19 21:24 9.31016 -69.81870 38991 ft 486 kts 67°
2026-04-19 21:25 9.33848 -69.75621 38489 ft 496 kts 67°
2026-04-19 21:25 9.35285 -69.72447 37989 ft 495 kts 67°
2026-04-19 21:25 9.36704 -69.69316 37305 ft 495 kts 66°
2026-04-19 21:26 9.38139 -69.66149 36649 ft 494 kts 66°
2026-04-19 21:26 9.39570 -69.62986 35965 ft 493 kts 66°
2026-04-19 21:26 9.40997 -69.59831 35197 ft 495 kts 66°
2026-04-19 21:26 9.42435 -69.56652 34405 ft 497 kts 66°
2026-04-19 21:27 9.43875 -69.53465 33544 ft 499 kts 66°
2026-04-19 21:27 9.45323 -69.50264 32741 ft 501 kts 66°
2026-04-19 21:27 9.46765 -69.47071 32162 ft 496 kts 66°
2026-04-19 21:27 9.48196 -69.43903 31535 ft 493 kts 66°
2026-04-19 21:28 9.49136 -69.41823 31131 ft 491 kts 66°
2026-04-19 21:28 9.50552 -69.38688 30533 ft 487 kts 66°
2026-04-19 21:28 9.52433 -69.34523 29720 ft 482 kts 66°
2026-04-19 21:28 9.53822 -69.31449 29118 ft 478 kts 66°
2026-04-19 21:29 9.55201 -69.28393 28492 ft 474 kts 66°
2026-04-19 21:29 9.56564 -69.25370 27890 ft 469 kts 65°
2026-04-19 21:29 9.57899 -69.22406 27290 ft 465 kts 65°
2026-04-19 21:29 9.59237 -69.19438 26680 ft 460 kts 65°
2026-04-19 21:30 9.60560 -69.16501 26075 ft 456 kts 65°
2026-04-19 21:30 9.61429 -69.14572 25672 ft 453 kts 65°
2026-04-19 21:30 9.62730 -69.11684 25074 ft 448 kts 64°
2026-04-19 21:30 9.64449 -69.07869 24274 ft 442 kts 64°
2026-04-19 21:31 9.65717 -69.05052 23679 ft 437 kts 64°
2026-04-19 21:31 9.66969 -69.02269 23089 ft 432 kts 64°
2026-04-19 21:31 9.68211 -68.99507 22499 ft 428 kts 64°
2026-04-19 21:31 9.69437 -68.96781 21914 ft 423 kts 64°
2026-04-19 21:32 9.70653 -68.94079 21332 ft 419 kts 64°
2026-04-19 21:32 9.71857 -68.91402 20751 ft 415 kts 64°
2026-04-19 21:32 9.73045 -68.88759 20171 ft 407 kts 64°
2026-04-19 21:32 9.74216 -68.86161 19594 ft 403 kts 64°
2026-04-19 21:33 9.75365 -68.83593 19040 ft 395 kts 64°
2026-04-19 21:33 9.76463 -68.81109 18506 ft 386 kts 64°
2026-04-19 21:33 9.77571 -68.78644 17959 ft 382 kts 64°
2026-04-19 21:33 9.78699 -68.76231 17430 ft 376 kts 64°
2026-04-19 21:34 9.79796 -68.73825 16899 ft 373 kts 64°
2026-04-19 21:34 9.80863 -68.71436 16364 ft 370 kts 64°
2026-04-19 21:34 9.81896 -68.69067 15844 ft 366 kts 65°
2026-04-19 21:34 9.82919 -68.66720 15321 ft 362 kts 64°
2026-04-19 21:35 9.83614 -68.65184 14988 ft 360 kts 63°
2026-04-19 21:35 9.84655 -68.62882 14457 ft 357 kts 64°
2026-04-19 21:35 9.85679 -68.60605 13940 ft 354 kts 64°
2026-04-19 21:35 9.86696 -68.58342 13447 ft 350 kts 64°
2026-04-19 21:36 9.87702 -68.56100 12916 ft 348 kts 64°
2026-04-19 21:36 9.88699 -68.53874 12396 ft 346 kts 64°
2026-04-19 21:36 9.89688 -68.51665 11917 ft 342 kts 64°
2026-04-19 21:36 9.90985 -68.48771 11246 ft 338 kts 64°
2026-04-19 21:37 9.91638 -68.47314 10953 ft 335 kts 64°
2026-04-19 21:37 9.92598 -68.45171 10500 ft 331 kts 64°
2026-04-19 21:37 9.93527 -68.43093 10383 ft 316 kts 64°
2026-04-19 21:37 9.94407 -68.41123 10230 ft 304 kts 64°
2026-04-19 21:38 9.95265 -68.39203 10097 ft 293 kts 64°
2026-04-19 21:38 9.96093 -68.37353 9898 ft 284 kts 64°
2026-04-19 21:38 9.96909 -68.35530 9592 ft 283 kts 65°
2026-04-19 21:38 9.97722 -68.33711 9232 ft 282 kts 65°
2026-04-19 21:39 9.98534 -68.31895 8888 ft 282 kts 65°
2026-04-19 21:39 9.99340 -68.30090 8531 ft 280 kts 65°
2026-04-19 21:39 10.00140 -68.28304 8199 ft 277 kts 65°
2026-04-19 21:39 10.00936 -68.26526 7827 ft 276 kts 65°
2026-04-19 21:40 10.02752 -68.23173 6805 ft 272 kts 57°
2026-04-19 21:40 10.03777 -68.21534 6290 ft 271 kts 57°
2026-04-19 21:40 10.04767 -68.19954 5803 ft 267 kts 57°
2026-04-19 21:41 10.05758 -68.18361 5345 ft 263 kts 58°
2026-04-19 21:41 10.06704 -68.16833 5148 ft 250 kts 58°
2026-04-19 21:41 10.07597 -68.15382 5021 ft 235 kts 58°
2026-04-19 21:41 10.08437 -68.14013 4916 ft 223 kts 58°
2026-04-19 21:42 10.09242 -68.12701 4831 ft 219 kts 58°
2026-04-19 21:42 10.10050 -68.11382 4732 ft 221 kts 58°
2026-04-19 21:42 10.10855 -68.10065 4497 ft 216 kts 58°
2026-04-19 21:42 10.11625 -68.08802 4256 ft 210 kts 58°
2026-04-19 21:43 10.12381 -68.07563 4028 ft 202 kts 58°
2026-04-19 21:43 10.13108 -68.06371 3772 ft 196 kts 58°
2026-04-19 21:43 10.13807 -68.05229 3523 ft 184 kts 58°
2026-04-19 21:43 10.14457 -68.04165 3291 ft 171 kts 58°
2026-04-19 21:44 10.15064 -68.03171 3104 ft 158 kts 58°
2026-04-19 21:44 10.15411 -68.02161 2867 ft 152 kts 95°
2026-04-19 21:44 10.15309 -68.01109 2750 ft 152 kts 93°
2026-04-19 21:44 10.15266 -68.00036 2550 ft 150 kts 92°
2026-04-19 21:45 10.15234 -67.98991 2352 ft 147 kts 92°
2026-04-19 21:45 10.15194 -67.97960 2179 ft 146 kts 92°
2026-04-19 21:45 10.15150 -67.96936 1981 ft 145 kts 92°
2026-04-19 21:45 10.15110 -67.95903 1783 ft 149 kts 92°
2026-04-19 21:46 10.15068 -67.94851 1594 ft 151 kts 93°
2026-04-19 21:46 10.15023 -67.93812 1429 ft 138 kts 93°
2026-04-19 21:46 10.14985 -67.92999 1419 ft 103 kts 93°
2026-04-19 21:46 10.14957 -67.92416 1411 ft 61 kts 93°
2026-04-19 21:47 10.14966 -67.92281 1410 ft 6 kts 17°
2026-04-19 21:47 10.15013 -67.92275 1410 ft 6 kts
2026-04-19 21:47 10.15026 -67.92275 1411 ft 0 kts
2026-04-19 21:47 10.15074 -67.92272 1412 ft 11 kts
2026-04-19 21:48 10.15111 -67.92196 1412 ft 15 kts 93°
2026-04-19 21:48 10.15107 -67.92105 1412 ft 10 kts 86°
2026-04-19 21:48 10.15162 -67.92051 1416 ft 21 kts
2026-04-19 21:48 10.15231 -67.92035 1417 ft 6 kts 51°
2026-04-19 21:49 10.15257 -67.91986 1417 ft 8 kts 36°
2026-04-19 21:49 10.15277 -67.91983 1417 ft 0 kts
2026-04-19 21:49 10.15316 -67.91984 1417 ft 5 kts 359°
2026-04-19 21:49 10.15352 -67.91992 1417 ft 11 kts 317°
2026-04-19 21:50 10.15361 -67.92013 1417 ft 0 kts 276°
2026-04-19 21:50 10.15360 -67.92020 1417 ft 7 kts 264°
2026-04-19 21:50 10.15361 -67.92036 1417 ft 0 kts 274°
2026-04-19 21:51 10.15362 -67.92043 1417 ft 0 kts 274°
2026-04-19 21:53 10.15412 -67.92034 1417 ft 0 kts 274°
2026-04-19 21:54 10.15412 -67.92040 1417 ft 0 kts 274°
2026-04-19 21:56 10.15412 -67.92034 1417 ft 0 kts 274°
2026-04-19 21:56 10.15412 -67.92040 1417 ft 0 kts 274°
2026-04-19 21:57 10.15411 -67.92037 1417 ft 0 kts 274°
2026-04-19 21:57 10.15410 -67.92032 1417 ft 0 kts 274°
2026-04-19 21:58 10.15410 -67.92031 1417 ft 0 kts 274°
2026-04-19 21:58 10.15411 -67.92037 1417 ft 0 kts 274°
2026-04-19 21:58 10.15411 -67.92036 1417 ft 0 kts 274°
2026-04-19 21:59 10.15410 -67.92033 1417 ft 0 kts 274°
2026-04-19 21:59 10.15410 -67.92034 1417 ft 0 kts 274°